N208CV KAVX-KSMO

Flight info

Callsign N208CV
Flight time 0h 26m
Altitude 7000
Route SXC V21 SLI/N0180F080 V459 DARTS
Aircraft C208/L-SDFGR/C

Departure

Time 2026-05-08 00:07
Airport Catalina Airport (KAVX)

Arrival

Time 2026-05-08 00:33
Airport Santa Monica Municipal Airport (KSMO)
Time Latitude Longitude Altitude Speed Heading
2026-05-07 23:51 33.40345 -118.41510 1597 ft 0 kts 327°
2026-05-07 23:55 33.40345 -118.41511 1597 ft 0 kts 327°
2026-05-07 23:56 33.40345 -118.41510 1597 ft 0 kts 326°
2026-05-07 23:56 33.40346 -118.41511 1597 ft 0 kts 326°
2026-05-07 23:57 33.40346 -118.41510 1597 ft 0 kts 325°
2026-05-07 23:57 33.40345 -118.41510 1597 ft 0 kts 325°
2026-05-07 23:57 33.40356 -118.41519 1597 ft 3 kts 325°
2026-05-07 23:58 33.40375 -118.41535 1596 ft 0 kts 325°
2026-05-07 23:58 33.40377 -118.41537 1596 ft 0 kts 325°
2026-05-07 23:58 33.40375 -118.41535 1596 ft 0 kts 325°
2026-05-08 00:02 33.40377 -118.41536 1596 ft 0 kts 356°
2026-05-08 00:02 33.40447 -118.41501 1589 ft 15 kts 348°
2026-05-08 00:02 33.40508 -118.41497 1586 ft 5 kts 63°
2026-05-08 00:03 33.40545 -118.41432 1580 ft 15 kts 54°
2026-05-08 00:03 33.40627 -118.41299 1569 ft 23 kts 56°
2026-05-08 00:03 33.40691 -118.41170 1559 ft 12 kts 63°
2026-05-08 00:03 33.40711 -118.41149 1557 ft 0 kts 49°
2026-05-08 00:04 33.40714 -118.41144 1557 ft 0 kts 48°
2026-05-08 00:05 33.40716 -118.41143 1557 ft 0 kts 41°
2026-05-08 00:05 33.40717 -118.41142 1557 ft 0 kts 35°
2026-05-08 00:06 33.40734 -118.41177 1556 ft 9 kts 255°
2026-05-08 00:06 33.40629 -118.41359 1574 ft 66 kts 234°
2026-05-08 00:06 33.40289 -118.41917 1837 ft 99 kts 218°
2026-05-08 00:06 33.39530 -118.41908 2158 ft 124 kts 166°
2026-05-08 00:07 33.38906 -118.41117 2409 ft 146 kts 109°
2026-05-08 00:07 33.39051 -118.39911 2631 ft 150 kts 52°
2026-05-08 00:07 33.39889 -118.39295 2864 ft 143 kts
2026-05-08 00:07 33.40846 -118.38936 3110 ft 147 kts 23°
2026-05-08 00:08 33.41706 -118.38268 3344 ft 147 kts 32°
2026-05-08 00:08 33.42523 -118.37535 3582 ft 146 kts 32°
2026-05-08 00:08 33.43340 -118.36805 3828 ft 147 kts 32°
2026-05-08 00:08 33.44150 -118.36082 4066 ft 147 kts 32°
2026-05-08 00:09 33.44974 -118.35348 4300 ft 148 kts 32°
2026-05-08 00:09 33.45795 -118.34615 4549 ft 148 kts 32°
2026-05-08 00:09 33.46629 -118.33873 4797 ft 149 kts 32°
2026-05-08 00:09 33.47458 -118.33132 5036 ft 148 kts 32°
2026-05-08 00:10 33.48286 -118.32394 5274 ft 149 kts 32°
2026-05-08 00:10 33.49114 -118.31655 5517 ft 149 kts 32°
2026-05-08 00:10 33.49944 -118.30914 5755 ft 149 kts 33°
2026-05-08 00:10 33.50775 -118.30174 5994 ft 149 kts 33°
2026-05-08 00:11 33.51636 -118.29406 6037 ft 159 kts 33°
2026-05-08 00:11 33.52541 -118.28598 6037 ft 164 kts 33°
2026-05-08 00:11 33.53463 -118.27772 6036 ft 166 kts 33°
2026-05-08 00:11 33.54388 -118.26945 6035 ft 166 kts 33°
2026-05-08 00:12 33.55304 -118.26127 6032 ft 166 kts 33°
2026-05-08 00:12 33.56233 -118.25296 6031 ft 166 kts 33°
2026-05-08 00:12 33.57164 -118.24463 6022 ft 167 kts 33°
2026-05-08 00:12 33.58096 -118.23631 6022 ft 167 kts 33°
2026-05-08 00:13 33.59025 -118.22800 6022 ft 167 kts 33°
2026-05-08 00:13 33.59966 -118.21987 6014 ft 166 kts 25°
2026-05-08 00:13 33.61060 -118.21847 5998 ft 159 kts 345°
2026-05-08 00:13 33.62121 -118.22176 5999 ft 157 kts 341°
2026-05-08 00:14 33.63172 -118.22526 5992 ft 157 kts 341°
2026-05-08 00:14 33.64226 -118.22877 5994 ft 157 kts 341°
2026-05-08 00:14 33.65263 -118.23274 5989 ft 156 kts 334°
2026-05-08 00:14 33.66274 -118.23846 5774 ft 171 kts 331°
2026-05-08 00:15 33.67392 -118.24504 5558 ft 185 kts 332°
2026-05-08 00:15 33.68565 -118.25200 5339 ft 190 kts 331°
2026-05-08 00:15 33.69689 -118.25855 5118 ft 170 kts 331°
2026-05-08 00:15 33.70718 -118.26437 4993 ft 165 kts 331°
2026-05-08 00:16 33.71783 -118.27041 4994 ft 173 kts 331°
2026-05-08 00:16 33.72888 -118.27668 4990 ft 178 kts 331°
2026-05-08 00:16 33.74014 -118.28307 4989 ft 180 kts 331°
2026-05-08 00:16 33.75143 -118.28955 4995 ft 180 kts 331°
2026-05-08 00:17 33.76282 -118.29596 4998 ft 181 kts 331°
2026-05-08 00:17 33.77420 -118.30239 4997 ft 181 kts 331°
2026-05-08 00:17 33.78553 -118.30885 4996 ft 180 kts 331°
2026-05-08 00:17 33.79687 -118.31522 4999 ft 179 kts 331°
2026-05-08 00:18 33.80822 -118.32146 4998 ft 180 kts 332°
2026-05-08 00:18 33.81968 -118.32774 4996 ft 180 kts 332°
2026-05-08 00:18 33.83106 -118.33401 4997 ft 180 kts 331°
2026-05-08 00:18 33.84244 -118.34024 4996 ft 180 kts 332°
2026-05-08 00:19 33.85378 -118.34657 4997 ft 180 kts 331°
2026-05-08 00:19 33.86513 -118.35291 5005 ft 180 kts 331°
2026-05-08 00:19 33.87651 -118.35918 5005 ft 180 kts 332°
2026-05-08 00:19 33.88787 -118.36545 5005 ft 179 kts 331°
2026-05-08 00:20 33.89912 -118.37165 4999 ft 179 kts 332°
2026-05-08 00:20 33.91040 -118.37800 4999 ft 179 kts 332°
2026-05-08 00:20 33.92168 -118.38438 4999 ft 179 kts 331°
2026-05-08 00:20 33.93300 -118.39074 4998 ft 179 kts 332°
2026-05-08 00:21 33.94429 -118.39714 4996 ft 180 kts 332°
2026-05-08 00:21 33.95558 -118.40354 4993 ft 179 kts 331°
2026-05-08 00:21 33.96686 -118.40990 4995 ft 179 kts 332°
2026-05-08 00:21 33.97803 -118.41620 4996 ft 180 kts 331°
2026-05-08 00:22 33.98945 -118.42261 4879 ft 185 kts 332°
2026-05-08 00:22 34.00122 -118.42918 4565 ft 181 kts 332°
2026-05-08 00:22 34.01230 -118.43526 4306 ft 168 kts 331°
2026-05-08 00:22 34.02232 -118.44069 4294 ft 150 kts 332°
2026-05-08 00:23 34.03153 -118.44569 4300 ft 142 kts 331°
2026-05-08 00:23 34.04042 -118.45047 4298 ft 138 kts 332°
2026-05-08 00:23 34.04909 -118.45514 4291 ft 136 kts 331°
2026-05-08 00:23 34.05759 -118.45973 4297 ft 135 kts 332°
2026-05-08 00:24 34.06656 -118.46308 4294 ft 137 kts 345°
2026-05-08 00:24 34.07580 -118.45950 4292 ft 150 kts 37°
2026-05-08 00:24 34.08322 -118.45066 4307 ft 151 kts 41°
2026-05-08 00:24 34.09059 -118.44139 4302 ft 153 kts 42°
2026-05-08 00:25 34.09796 -118.43223 4286 ft 152 kts 42°
2026-05-08 00:25 34.10531 -118.42312 4295 ft 152 kts 42°
2026-05-08 00:25 34.11263 -118.41397 4275 ft 151 kts 41°
2026-05-08 00:25 34.11993 -118.40485 4285 ft 151 kts 41°
2026-05-08 00:26 34.12730 -118.39568 4271 ft 153 kts 41°
2026-05-08 00:26 34.13467 -118.38648 4281 ft 152 kts 41°
2026-05-08 00:26 34.14152 -118.37701 4280 ft 155 kts 57°
2026-05-08 00:26 34.14247 -118.36424 4290 ft 158 kts 110°
2026-05-08 00:27 34.13654 -118.35323 4293 ft 157 kts 132°
2026-05-08 00:27 34.12969 -118.34287 4287 ft 158 kts 131°
2026-05-08 00:27 34.12269 -118.33238 4281 ft 160 kts 133°
2026-05-08 00:27 34.11388 -118.32550 4282 ft 148 kts 177°
2026-05-08 00:28 34.10343 -118.32589 4079 ft 155 kts 191°
2026-05-08 00:28 34.09255 -118.32731 3863 ft 159 kts 190°
2026-05-08 00:28 34.08148 -118.32916 3679 ft 161 kts 192°
2026-05-08 00:28 34.07318 -118.33578 3686 ft 137 kts 244°
2026-05-08 00:29 34.06994 -118.34653 3534 ft 136 kts 254°
2026-05-08 00:29 34.06769 -118.35702 3356 ft 119 kts 256°
2026-05-08 00:29 34.06629 -118.36625 3114 ft 103 kts 259°
2026-05-08 00:29 34.06501 -118.37474 2902 ft 97 kts 259°
2026-05-08 00:30 34.06350 -118.38212 2722 ft 89 kts 259°
2026-05-08 00:30 34.06187 -118.38936 2518 ft 90 kts 254°
2026-05-08 00:30 34.05981 -118.39625 2295 ft 86 kts 249°
2026-05-08 00:30 34.05733 -118.40258 2097 ft 83 kts 240°
2026-05-08 00:31 34.05385 -118.40812 1867 ft 83 kts 226°
2026-05-08 00:31 34.04986 -118.41296 1653 ft 80 kts 218°
2026-05-08 00:31 34.04585 -118.41729 1501 ft 74 kts 221°
2026-05-08 00:31 34.04209 -118.42138 1367 ft 72 kts 220°
2026-05-08 00:32 34.03857 -118.42533 1286 ft 68 kts 222°
2026-05-08 00:32 34.03497 -118.42932 1108 ft 73 kts 221°
2026-05-08 00:32 34.03106 -118.43317 839 ft 73 kts 225°
2026-05-08 00:32 34.02744 -118.43753 594 ft 72 kts 226°
2026-05-08 00:33 34.02412 -118.44158 408 ft 65 kts 230°
2026-05-08 00:33 34.02093 -118.44538 266 ft 63 kts 222°
2026-05-08 00:33 34.01790 -118.44886 174 ft 57 kts 224°
2026-05-08 00:33 34.01538 -118.45182 160 ft 41 kts 229°
2026-05-08 00:34 34.01388 -118.45359 152 ft 7 kts 227°
2026-05-08 00:34 34.01387 -118.45361 152 ft 5 kts 225°
2026-05-08 00:34 34.01350 -118.45407 151 ft 8 kts 226°
2026-05-08 00:34 34.01332 -118.45437 150 ft 4 kts 263°
2026-05-08 00:35 34.01341 -118.45464 150 ft 5 kts 311°
2026-05-08 00:35 34.01345 -118.45468 150 ft 0 kts 321°
2026-05-08 00:38 34.01354 -118.45476 150 ft 4 kts 325°
2026-05-08 00:38 34.01389 -118.45470 150 ft 7 kts 44°
2026-05-08 00:39 34.01435 -118.45425 152 ft 10 kts 41°
2026-05-08 00:39 34.01488 -118.45353 154 ft 12 kts 46°
2026-05-08 00:39 34.01542 -118.45293 157 ft 11 kts 45°
2026-05-08 00:39 34.01601 -118.45222 160 ft 13 kts 45°
2026-05-08 00:40 34.01673 -118.45135 162 ft 16 kts 45°
2026-05-08 00:40 34.01754 -118.45038 167 ft 16 kts 45°
2026-05-08 00:40 34.01834 -118.44943 172 ft 16 kts 44°
2026-05-08 00:40 34.01915 -118.44852 178 ft 16 kts 43°
2026-05-08 00:41 34.01988 -118.44765 182 ft 14 kts 45°
2026-05-08 00:41 34.02059 -118.44679 189 ft 15 kts 45°
2026-05-08 00:41 34.02079 -118.44653 198 ft 0 kts 45°
2026-05-08 00:41 34.02098 -118.44619 191 ft 8 kts 80°
2026-05-08 00:42 34.02094 -118.44605 192 ft 0 kts 133°